Location: Doschendorf
(50.0069°N, 11.0602°E)
Time: 22:57:55
(UTC+00:00)

Cosmos 1939 Rocket - Pass Details

Date: 17 November 2019
Orbit: 532 x 585 km, 97.4° (Epoch: 05 December)

Event Time Altitude Azimuth Distance (km) Brightness Sun altitude
Exits shadow 17:12:12 29° 57° (ENE) 1,091 3.8 -16.3°
Drops below altitude 10° 17:15:27 10° 6° (N) 1,909 5.4 -16.8°
Sets 17:17:48 0° 356° (N) 2,807 6.4 -17.2°
